Showing default

ASTROSAT, 40930

Orbit data source: Space-Track

ASTROSAT, 40930 is a payload satellite owned by ISRO (IN) in LEO that was launched on Mon, 28 Sep 2015 UTC via a PSLV-XL launch vehicle from the Sirharikota (SRI). Payload-class satellites include a variety of spacecraft equipped with specific instruments for various scientific and technological missions. These include communications satellites like Starlink; space stations such as the ISS; scientific satellites like the Hubble; Earth observation satellites from companies like Planet Labs, Umbra, and HawkEye 360; GPS; miniature CubeSats for education and research; and military/defense satellites.

Not visible in the next 10 days
Identifier
40930, 2015-052A
Orbit
LEO
Country
Flag of ININ / IND
Related business
Manufacturer
ISRO SAC/Banga
Mission
Operational Civil Astronomy
Bus & Motor
ASTROSAT, AOCS
Mass
1,513 kg wet, 1,470 kg dry
Launch date (UTC)
2015-09-28 (10 years ago)
Launch vehicle
PSLV-XL
Launch site
Sirharikota (SRI)
Object type
Payload
Rocket body
Debris
Shape & HBR
Box + 2 Pan, 3.5 m
Radar Cross Section
5.447 m², Large (>1 m²)

Expand to show TLE details & history
Last TLE update: 1 day ago

TLE from 1 day ago
0 ASTROSAT
1 40930U 15052A   25347.05339646  .00002823  00000-0  26467-3 0  9999
2 40930   5.9977  54.6937 0008911 259.0068 100.9058 14.82019056552166
Epoch: 2025-12-13T01:16Z
TLE epoch observation values (Epoch: 2025-12-13T01:16:53.454Z)
Latitude
0.00001°
Longitude
-46.51515°
Altitude
621.081 km
Speed
7.551 km/s
True Right ascension
03h 38m 46s
True Declination
0° 00' 00"
Sunlit
Object was in full shadow at epoch
Visualization orbit readout
Latitude
Unknown
Longitude
Unknown
Altitude
Unknown
Speed
Unknown
Apparent Right ascension
Unknown
Apparent Declination
Unknown
Sunlit
N/A
Visualization observer readout
Local Sidereal Time
08:32:54
Azimuth
Unknown
Elevation
Unknown
Doppler factor
Unknown
Orbital elements
Apogee altitude
635.398 km
Perigee altitude
622.91 km
Semi-major axis
7,007.291 km
Eccentricity
0.00089
Inclination
5.9977°
RAAN
54.6937°
Arg. of periapsis
259.0068°
True anomaly
101.00605°
Mean anomaly
100.9058°
Eccentric anomaly
100.95593°
Mean motion
3.70014 °/min
Orbital period
97.29 mins
BSTAR
0.00026467
Loading maneuver chart data...
Computing Atmospheric mass density...
Loading historical data...
Loading historical data...
Loading historical data...
Loading historical data...
Loading historical data...
Loading historical data...
Loading historical data...

Documentation

Showing up to 5 results
|